Time,TemperatureF,DewpointF,PressureIn,WindDirection,WindDirectionDegrees,WindSpeedMPH,WindSpeedGustMPH,Humidity,HourlyPrecipIn,Conditions,Clouds,dailyrainin,SolarRadiationWatts/m^2,SoftwareType,DateUTC
2013-05-06 00:12:00,54.1,51.0,30.02,WNW,302,6.0,-999.0,90,-99.99,,,0.00,0,weatherlink.com 1.10,2013-05-06 05:12:00,
2013-05-06 00:27:00,54.0,51.0,30.02,NW,309,4.0,-999.0,90,-99.99,,,0.00,0,weatherlink.com 1.10,2013-05-06 05:27:00,
2013-05-06 00:42:00,54.0,51.0,30.02,NNW,327,5.0,-999.0,90,-99.99,,,0.00,0,weatherlink.com 1.10,2013-05-06 05:42:00,
2013-05-06 00:57:00,54.1,51.0,30.02,NW,307,0.0,-999.0,89,-99.99,,,0.00,0,weatherlink.com 1.10,2013-05-06 05:57:00,
2013-05-06 01:12:00,54.2,51.0,30.02,NW,311,5.0,-999.0,89,-99.99,,,0.00,0,weatherlink.com 1.10,2013-05-06 06:12:00,
2013-05-06 01:27:00,54.2,51.0,30.01,WNW,299,0.0,-999.0,88,-99.99,,,0.00,0,weatherlink.com 1.10,2013-05-06 06:27:00,
2013-05-06 01:42:00,54.2,51.0,30.01,NW,313,5.0,-999.0,88,-99.99,,,0.00,0,weatherlink.com 1.10,2013-05-06 06:42:00,
2013-05-06 01:57:00,54.3,51.0,30.01,NW,305,7.0,-999.0,88,-99.99,,,0.00,0,weatherlink.com 1.10,2013-05-06 06:57:00,
2013-05-06 02:12:00,54.2,51.0,30.00,NW,317,8.0,-999.0,88,-99.99,,,0.00,0,weatherlink.com 1.10,2013-05-06 07:12:00,
2013-05-06 02:27:00,54.3,51.0,30.00,NW,310,9.0,-999.0,88,-99.99,,,0.00,0,weatherlink.com 1.10,2013-05-06 07:27:00,
2013-05-06 02:42:00,54.2,51.0,30.00,WNW,298,12.0,-999.0,88,-99.99,,,0.00,0,weatherlink.com 1.10,2013-05-06 07:42:00,
2013-05-06 02:57:00,54.2,51.0,30.00,NW,319,11.0,-999.0,89,-99.99,,,0.00,0,weatherlink.com 1.10,2013-05-06 07:57:00,
2013-05-06 03:12:00,54.2,51.0,30.00,NW,321,12.0,-999.0,89,-99.99,,,0.00,0,weatherlink.com 1.10,2013-05-06 08:12:00,
2013-05-06 03:27:00,54.2,51.0,30.00,West,277,2.0,-999.0,89,-99.99,,,0.00,0,weatherlink.com 1.10,2013-05-06 08:27:00,
2013-05-06 03:42:00,54.2,51.0,30.00,NW,313,7.0,-999.0,89,-99.99,,,0.00,0,weatherlink.com 1.10,2013-05-06 08:42:00,
2013-05-06 03:57:00,54.2,51.0,30.01,NW,313,9.0,-999.0,89,-99.99,,,0.00,0,weatherlink.com 1.10,2013-05-06 08:57:00,
2013-05-06 04:12:00,54.2,51.0,30.01,NW,313,11.0,-999.0,89,-99.99,,,0.00,0,weatherlink.com 1.10,2013-05-06 09:12:00,
2013-05-06 04:27:00,54.3,51.0,30.01,WNW,301,6.0,-999.0,89,-99.99,,,0.00,0,weatherlink.com 1.10,2013-05-06 09:27:00,
2013-05-06 04:42:00,54.4,51.0,30.01,NW,311,4.0,-999.0,89,-99.99,,,0.00,0,weatherlink.com 1.10,2013-05-06 09:42:00,
2013-05-06 04:57:00,54.4,51.0,30.01,NW,311,7.0,-999.0,89,-99.99,,,0.00,0,weatherlink.com 1.10,2013-05-06 09:57:00,
2013-05-06 05:12:00,54.4,52.0,30.01,NW,307,8.0,-999.0,90,-99.99,,,0.00,0,weatherlink.com 1.10,2013-05-06 10:12:00,
2013-05-06 05:27:00,54.4,52.0,30.01,NW,306,6.0,-999.0,90,-99.99,,,0.00,0,weatherlink.com 1.10,2013-05-06 10:27:00,
2013-05-06 05:43:00,54.3,52.0,30.01,NW,308,6.0,-999.0,90,-99.99,,,0.00,0,weatherlink.com 1.10,2013-05-06 10:43:00,
2013-05-06 05:59:00,54.4,52.0,30.02,NW,307,8.0,-999.0,90,-99.99,,,0.00,0,weatherlink.com 1.10,2013-05-06 10:59:00,
2013-05-06 06:13:00,54.4,52.0,30.02,NW,309,5.0,-999.0,90,-99.99,,,0.00,0,weatherlink.com 1.10,2013-05-06 11:13:00,
2013-05-06 06:28:00,54.4,52.0,30.02,NW,319,5.0,-999.0,90,-99.99,,,0.00,9,weatherlink.com 1.10,2013-05-06 11:28:00,
2013-05-06 06:43:00,54.4,52.0,30.03,NW,312,8.0,-999.0,90,-99.99,,,0.00,14,weatherlink.com 1.10,2013-05-06 11:43:00,
2013-05-06 06:58:00,54.4,52.0,30.03,NW,310,5.0,-999.0,90,-99.99,,,0.00,28,weatherlink.com 1.10,2013-05-06 11:58:00,
2013-05-06 07:13:00,54.6,52.0,30.04,NW,309,6.0,-999.0,90,-99.99,,,0.00,33,weatherlink.com 1.10,2013-05-06 12:13:00,
2013-05-06 07:28:00,54.6,52.0,30.04,NW,315,9.0,-999.0,90,-99.99,,,0.00,21,weatherlink.com 1.10,2013-05-06 12:28:00,
2013-05-06 07:43:00,54.7,52.0,30.04,NW,315,7.0,-999.0,90,-99.99,,,0.00,33,weatherlink.com 1.10,2013-05-06 12:43:00,
2013-05-06 07:58:00,54.8,52.0,30.05,NW,319,9.0,-999.0,90,-99.99,,,0.00,25,weatherlink.com 1.10,2013-05-06 12:58:00,
2013-05-06 08:13:00,54.9,52.0,30.05,NW,318,6.0,-999.0,91,-99.99,,,0.00,35,weatherlink.com 1.10,2013-05-06 13:13:00,
2013-05-06 08:28:00,54.6,52.0,30.05,NW,315,2.0,-999.0,92,-99.99,,,0.00,39,weatherlink.com 1.10,2013-05-06 13:28:00,
2013-05-06 08:43:00,54.3,53.0,30.06,NW,304,2.0,-999.0,94,-99.99,,,0.00,54,weatherlink.com 1.10,2013-05-06 13:43:00,
2013-05-06 08:58:00,54.4,53.0,30.06,WNW,302,8.0,-999.0,94,-99.99,,,0.00,65,weatherlink.com 1.10,2013-05-06 13:58:00,
2013-05-06 09:13:00,54.5,53.0,30.06,WNW,303,6.0,-999.0,94,-99.99,,,0.00,134,weatherlink.com 1.10,2013-05-06 14:13:00,
2013-05-06 09:29:00,55.1,54.0,30.05,NW,309,2.0,-999.0,94,-99.99,,,0.00,137,weatherlink.com 1.10,2013-05-06 14:29:00,
2013-05-06 09:44:00,55.4,54.0,30.05,NW,309,4.0,-999.0,94,-99.99,,,0.00,77,weatherlink.com 1.10,2013-05-06 14:44:00,
2013-05-06 09:59:00,56.0,54.0,30.06,WNW,293,7.0,-999.0,93,-99.99,,,0.00,121,weatherlink.com 1.10,2013-05-06 14:59:00,
2013-05-06 10:14:00,57.1,55.0,30.06,NW,323,7.0,-999.0,91,-99.99,,,0.00,315,weatherlink.com 1.10,2013-05-06 15:14:00,
2013-05-06 10:29:00,58.4,55.0,30.06,NW,313,5.0,-999.0,89,-99.99,,,0.00,237,weatherlink.com 1.10,2013-05-06 15:29:00,
2013-05-06 10:44:00,58.4,55.0,30.06,NW,320,12.0,-999.0,87,-99.99,,,0.00,135,weatherlink.com 1.10,2013-05-06 15:44:00,
2013-05-06 10:59:00,59.3,55.0,30.06,NNW,327,15.0,-999.0,85,-99.99,,,0.00,179,weatherlink.com 1.10,2013-05-06 15:59:00,
2013-05-06 11:14:00,59.6,55.0,30.07,NW,304,6.0,-999.0,84,-99.99,,,0.00,216,weatherlink.com 1.10,2013-05-06 16:14:00,
2013-05-06 11:29:00,59.4,55.0,30.06,NNW,342,1.0,-999.0,85,-99.99,,,0.00,171,weatherlink.com 1.10,2013-05-06 16:29:00,
2013-05-06 11:44:00,59.7,54.0,30.06,NNW,333,10.0,-999.0,82,-99.99,,,0.00,287,weatherlink.com 1.10,2013-05-06 16:44:00,
2013-05-06 11:59:00,61.4,55.0,30.06,NNW,330,13.0,-999.0,79,-99.99,,,0.00,399,weatherlink.com 1.10,2013-05-06 16:59:00,
2013-05-06 12:14:00,62.0,54.0,30.06,North,351,10.0,-999.0,74,-99.99,,,0.00,230,weatherlink.com 1.10,2013-05-06 17:14:00,
2013-05-06 12:28:00,62.3,54.0,30.05,North,360,4.0,-999.0,73,-99.99,,,0.00,325,weatherlink.com 1.10,2013-05-06 17:28:00,
2013-05-06 12:43:00,63.7,55.0,30.05,NNW,346,9.0,-999.0,73,-99.99,,,0.00,1136,weatherlink.com 1.10,2013-05-06 17:43:00,
2013-05-06 12:59:00,64.4,54.0,30.05,NE,51,2.0,-999.0,70,-99.99,,,0.00,406,weatherlink.com 1.10,2013-05-06 17:59:00,
2013-05-06 13:14:00,64.7,54.0,30.04,NNW,338,7.0,-999.0,68,-99.99,,,0.00,204,weatherlink.com 1.10,2013-05-06 18:14:00,
2013-05-06 13:29:00,64.8,53.0,30.05,NNW,347,4.0,-999.0,66,-99.99,,,0.00,1106,weatherlink.com 1.10,2013-05-06 18:29:00,
2013-05-06 13:44:00,66.5,54.0,30.04,North,5,1.0,-999.0,65,-99.99,,,0.00,274,weatherlink.com 1.10,2013-05-06 18:44:00,
2013-05-06 13:59:00,66.8,54.0,30.04,NNE,12,3.0,-999.0,63,-99.99,,,0.00,417,weatherlink.com 1.10,2013-05-06 18:59:00,
2013-05-06 14:14:00,66.6,53.0,30.03,NNW,328,10.0,-999.0,63,-99.99,,,0.00,234,weatherlink.com 1.10,2013-05-06 19:14:00,
2013-05-06 14:29:00,65.5,54.0,30.03,NNW,329,6.0,-999.0,66,-99.99,,,0.00,374,weatherlink.com 1.10,2013-05-06 19:29:00,
2013-05-06 14:44:00,66.2,53.0,30.03,NNW,346,7.0,-999.0,63,-99.99,,,0.00,276,weatherlink.com 1.10,2013-05-06 19:44:00,
2013-05-06 14:59:00,66.2,53.0,30.02,NNW,344,9.0,-999.0,62,-99.99,,,0.00,318,weatherlink.com 1.10,2013-05-06 19:59:00,
2013-05-06 15:14:00,66.4,54.0,30.02,NW,315,8.0,-999.0,64,-99.99,,,0.00,248,weatherlink.com 1.10,2013-05-06 20:14:00,
2013-05-06 15:29:00,66.1,53.0,30.02,NW,317,6.0,-999.0,64,-99.99,,,0.00,251,weatherlink.com 1.10,2013-05-06 20:29:00,
2013-05-06 15:44:00,66.4,54.0,30.01,NNW,328,13.0,-999.0,65,-99.99,,,0.00,265,weatherlink.com 1.10,2013-05-06 20:44:00,
2013-05-06 15:59:00,66.5,53.0,30.01,NNW,331,6.0,-999.0,63,-99.99,,,0.00,285,weatherlink.com 1.10,2013-05-06 20:59:00,
2013-05-06 16:14:00,67.0,54.0,30.01,NW,319,11.0,-999.0,63,-99.99,,,0.00,313,weatherlink.com 1.10,2013-05-06 21:14:00,
2013-05-06 16:29:00,68.3,53.0,30.00,NW,306,8.0,-999.0,58,-99.99,,,0.00,248,weatherlink.com 1.10,2013-05-06 21:29:00,
2013-05-06 16:44:00,67.6,53.0,30.00,NW,315,11.0,-999.0,60,-99.99,,,0.00,107,weatherlink.com 1.10,2013-05-06 21:44:00,
2013-05-06 16:59:00,67.2,54.0,30.00,NW,316,7.0,-999.0,63,-99.99,,,0.00,153,weatherlink.com 1.10,2013-05-06 21:59:00,
2013-05-06 17:14:00,67.3,53.0,30.00,NNW,327,11.0,-999.0,61,-99.99,,,0.00,169,weatherlink.com 1.10,2013-05-06 22:14:00,
2013-05-06 17:29:00,67.7,53.0,30.00,NNW,333,7.0,-999.0,60,-99.99,,,0.00,104,weatherlink.com 1.10,2013-05-06 22:29:00,
2013-05-06 17:44:00,67.5,55.0,30.00,NNW,335,5.0,-999.0,64,-99.99,,,0.00,144,weatherlink.com 1.10,2013-05-06 22:44:00,
2013-05-06 17:59:00,67.6,54.0,30.00,NNW,333,10.0,-999.0,61,-99.99,,,0.00,54,weatherlink.com 1.10,2013-05-06 22:59:00,
2013-05-06 18:14:00,67.4,53.0,30.00,NNW,328,5.0,-999.0,61,-99.99,,,0.00,49,weatherlink.com 1.10,2013-05-06 23:14:00,
2013-05-06 18:29:00,66.8,54.0,30.00,NNW,330,7.0,-999.0,64,-99.99,,,0.00,32,weatherlink.com 1.10,2013-05-06 23:29:00,
2013-05-06 18:44:00,66.9,54.0,30.00,NNW,331,5.0,-999.0,63,-99.99,,,0.00,62,weatherlink.com 1.10,2013-05-06 23:44:00,
2013-05-06 18:59:00,66.5,54.0,30.00,NNW,330,6.0,-999.0,64,-99.99,,,0.00,25,weatherlink.com 1.10,2013-05-06 23:59:00,
2013-05-06 19:14:00,66.5,54.0,30.01,NW,324,7.0,-999.0,64,-99.99,,,0.00,23,weatherlink.com 1.10,2013-05-07 00:14:00,
2013-05-06 19:29:00,66.3,54.0,30.01,NNW,338,4.0,-999.0,64,-99.99,,,0.00,19,weatherlink.com 1.10,2013-05-07 00:29:00,
2013-05-06 19:44:00,66.1,53.0,30.01,NNW,335,4.0,-999.0,64,-99.99,,,0.00,12,weatherlink.com 1.10,2013-05-07 00:44:00,
2013-05-06 19:59:00,65.7,54.0,30.02,NNW,335,4.0,-999.0,65,-99.99,,,0.00,0,weatherlink.com 1.10,2013-05-07 00:59:00,
2013-05-06 20:14:00,65.7,54.0,30.02,NNW,335,6.0,-999.0,65,-99.99,,,0.00,0,weatherlink.com 1.10,2013-05-07 01:14:00,
2013-05-06 20:29:00,65.7,54.0,30.03,NNW,335,0.0,-999.0,65,-99.99,,,0.00,0,weatherlink.com 1.10,2013-05-07 01:29:00,
2013-05-06 20:44:00,65.5,53.0,30.04,NNW,335,0.0,-999.0,65,-99.99,,,0.00,0,weatherlink.com 1.10,2013-05-07 01:44:00,
2013-05-06 20:59:00,65.2,54.0,30.04,NNW,335,0.0,-999.0,68,-99.99,,,0.00,0,weatherlink.com 1.10,2013-05-07 01:59:00,
2013-05-06 21:14:00,64.8,54.0,30.05,NNW,335,0.0,-999.0,69,-99.99,,,0.00,0,weatherlink.com 1.10,2013-05-07 02:14:00,
2013-05-06 21:29:00,64.4,55.0,30.05,NNW,335,0.0,-999.0,71,-99.99,,,0.00,0,weatherlink.com 1.10,2013-05-07 02:29:00,
2013-05-06 21:44:00,64.0,55.0,30.06,NNW,335,4.0,-999.0,73,-99.99,,,0.00,0,weatherlink.com 1.10,2013-05-07 02:44:00,
2013-05-06 21:59:00,63.4,55.0,30.06,NNW,335,0.0,-999.0,74,-99.99,,,0.00,0,weatherlink.com 1.10,2013-05-07 02:59:00,
2013-05-06 22:14:00,62.9,55.0,30.07,NNW,335,0.0,-999.0,75,-99.99,,,0.00,0,weatherlink.com 1.10,2013-05-07 03:14:00,
2013-05-06 22:29:00,62.9,55.0,30.07,NNW,335,0.0,-999.0,75,-99.99,,,0.00,0,weatherlink.com 1.10,2013-05-07 03:29:00,
2013-05-06 22:44:00,62.6,55.0,30.07,NNW,335,0.0,-999.0,76,-99.99,,,0.00,0,weatherlink.com 1.10,2013-05-07 03:44:00,
2013-05-06 22:59:00,62.2,55.0,30.07,WNW,303,11.0,-999.0,77,-99.99,,,0.00,0,weatherlink.com 1.10,2013-05-07 03:59:00,
2013-05-06 23:14:00,61.8,55.0,30.07,WNW,299,0.0,-999.0,79,-99.99,,,0.00,0,weatherlink.com 1.10,2013-05-07 04:14:00,
2013-05-06 23:29:00,61.5,55.0,30.07,WNW,300,1.0,-999.0,79,-99.99,,,0.00,0,weatherlink.com 1.10,2013-05-07 04:29:00,
2013-05-06 23:44:00,61.2,55.0,30.07,WNW,300,0.0,-999.0,80,-99.99,,,0.00,0,weatherlink.com 1.10,2013-05-07 04:44:00,
2013-05-06 23:59:00,61.0,55.0,30.07,WNW,297,5.0,-999.0,81,-99.99,,,0.00,0,weatherlink.com 1.10,2013-05-07 04:59:00,